Regional Weather Roundup
Issued by NWS Kansas City/Pleasant Hill, MO

Home | Current Version | Previous Version | Text Only | Print | Product List | Glossary On
Versions: 1 2 3 4 5 6 7 8 9 10 11 12 13 14 15 16 17 18 19 20 21 22 23 24 25 26 27 28 29 30 31 32 33 34 35 36 37 38 39 40 41 42 43 44 45 46 47 48 49 50
000
ASUS43 KEAX 230710
RWREAX

WEATHER ROUNDUP FOR EASTERN KANSAS AND NORTHWEST MISSOURI
NATIONAL WEATHER SERVICE KANSAS CITY/PLEASANT HILL MO
200 AM CDT SUN JUL 23 2017

KSZ040-057-103>105-MOZ028-029-037-043-230800-
...KANSAS CITY METROPOLITAN AREA...

CITY           SKY/WX    TMP DP  RH WIND       PRES   REMARKS
K.C. INTL      CLOUDY    73  71  93 SE3       29.92F
K.C. DOWNTOWN  CLOUDY    74  71  91 S6        29.91F
LEES SUMMIT    LGT RAIN  71  70  96 E8        29.94F
OLATHE - IXD   CLOUDY    71  68  90 S16       29.93F
OLATHE - OJC   CLOUDY    70  70 100 NE12      29.90F
LAWRENCE       CLOUDY    73  71  93 NE10G21   29.88F

$$

MOZ001>008-011>017-020>025-030>033-038>040-044>046-053-054-230800-
...NORTHERN AND CENTRAL MISSOURI...

CITY           SKY/WX    TMP DP  RH WIND       PRES   REMARKS
ST. JOSEPH     CLOUDY    76  72  87 S5        29.92F
MOSBY          LGT RAIN  72  70  94 CALM      29.92F
WHITEMAN AFB   NOT AVBL
CLINTON        CLOUDY    72  70  94 N6        29.93F
SEDALIA        LGT RAIN  73  72  96 N9        29.98R
WARSAW         NOT AVBL
CHILLICOTHE      N/A     76  71  85 VRB6      29.94F
KIRKSVILLE     CLOUDY    77  74  90 SW10      29.94R

$$

MOZ041-047>049-056>058-063>065-088>090-097-230800-
...EASTERN AND SOUTHERN MISSOURI...

CITY           SKY/WX    TMP DP  RH WIND       PRES   REMARKS
ST. LOUIS INTL CLOUDY    85  74  69 W5        29.79S HX  92
SPIRIT OF STL  CLOUDY    79  76  90 SW8       29.78F THUNDER
COLUMBIA       TSTM      72  71  97 N21       29.92R
JEFFERSON CITY TSTM      79  70  74 NW10G20   29.88R
ROLLA          CLOUDY    80  73  79 SW8       29.88R
OSAGE BEACH    CLOUDY    81  69  67 NW10      29.91R
SPRINGFIELD    CLOUDY    81  73  76 NW8       29.92R
BRANSON        CLEAR     79  68  69 SW6       29.91S
JOPLIN         MOCLDY    86  74  67 W9        29.93R HX  94
WEST PLAINS    CLEAR     79  72  79 SW5       29.90F

$$

IAZ060-094-KSZ022-034>040-054-083-096-NEZ052-066-093-230800-
...KANSAS...SOUTHEAST NEBRASKA AND IOWA...

CITY           SKY/WX    TMP DP  RH WIND       PRES   REMARKS
TOPEKA         CLOUDY    73  71  93 NW7       29.89S
MANHATTAN      CLOUDY    72  68  87 N5        29.89S
EMPORIA        CLOUDY    71  67  87 SE16G23   29.92F
CHANUTE        CLOUDY    78  64  61 NW17      30.00R
WICHITA        PTCLDY    73  70  90 E9        29.93S
OMAHA          MOCLDY    72  69  90 N3        29.93S
LINCOLN        PTCLDY    73  70  90 W5        29.95F
FALLS CITY     CLOUDY    76  68  76 CALM      29.92S
LAMONI         CLOUDY    76  74  93 SW7       29.93R
DES MOINES     CLOUDY    77  73  87 W5        29.87S

$$




USA.gov is the U.S. government's official web portal to all federal, state and local government web resources and services.